Location: Mauries
(43.6188°N, 0.3322°W)
Time: 19:26:54
(UTC+00:00)

METEOR M2 - Visible Passes

Search period start: 15 May 2026 00:00
Search period end: 25 May 2026 00:00
Orbit: 816 x 825 km, 98.5° (Epoch: 15 May)

Date Brightness Start Highest point End Pass type
(mag) Time Alt. Az. Time Alt. Az. Time Alt. Az.
15 May ? 03:44:27 10° NNE 03:49:28 39° E 03:54:26 10° SSE visible
16 May ? 03:24:11 10° NE 03:28:38 26° E 03:33:04 10° SSE visible
17 May ? 03:04:17 10° NE 03:07:45 17° E 03:11:13 10° SE visible
18 May ? 02:45:27 10° ENE 02:46:48 11° E 02:48:08 10° ESE visible
20 May ? 03:41:15 10° NNE 03:46:11 37° E 03:51:06 10° SSE visible
21 May ? 03:21:00 10° NE 03:25:21 25° E 03:29:40 10° SSE visible
22 May ? 03:01:09 10° NE 03:04:27 16° E 03:07:44 10° SE visible
23 May ? 02:43:02 10° E 02:43:28 10° E 02:43:56 10° E visible
